OE5MIL-13 Weather Reports


time (UTC)temp
C
wind
direction
speed
KPH
gust
KPH
rain 1hr
cm
rain 24hr
cm
rain mn
cm
humidity
%
barometer
mb
20260505174328 10 317 6.4 12.9 0.00 0.00 0.00 100
20260505172327 11 260 9.7 20.9 0.00 0.00 0.00 100
20260505170325 9 115 1.6 19.3 0.00 0.00 0.00 100
20260505164324 8 248 6.4 20.9 0.00 0.00 0.00 100
20260505162323 10 217 6.4 24.1 0.00 0.00 0.00 100
20260505160322 10 85 6.4 22.5 0.00 0.00 0.00 100
20260505152320 14 160 29.0 29.0 0.00 0.00 0.00 100
20260505150318 14 57 6.4 17.7 0.00 0.00 0.00 100
20260505140315 18 156 8.0 16.1 0.00 0.00 0.00 100
20260505130312 17 150 6.4 11.3 0.00 0.00 0.00 100
20260505124310 17 157 11.3 11.3 0.00 0.00 0.00 100
20260505122309 17 189 4.8 12.9 0.00 0.00 0.00 100
20260505120308 17 205 0.0 12.9 0.00 0.00 0.00 100
20260505114307 16 164 12.9 12.9 0.00 0.00 0.00 100
20260505112306 16 154 3.2 14.5 0.00 0.00 0.00 100
20260505110349 15 185 8.0 14.5 0.00 0.00 0.00 100
20260505110305 15 185 8.0 14.5 0.00 0.00 0.00 100
20260505100301 13 8 0.0 0.0 0.00 0.00 0.00 100
20260505094300 13 137 0.0 16.1 0.00 0.00 0.00 100
20260505092259 11 281 1.6 8.0 0.00 0.00 0.00 100
20260505090258 12 254 0.0 3.2 0.00 0.00 0.00 100
20260505084257 11 281 0.0 6.4 0.00 0.00 0.00 100
20260505082255 10 300 3.2 8.0 0.00 0.00 0.00 100
20260505080254 10 327 3.2 6.4 0.00 0.00 0.00 100
20260505074253 10 307 6.4 9.7 0.00 0.00 0.00 100
20260505072252 9 286 0.0 4.8 0.00 0.00 0.00 100
20260505070251 8 331 6.4 6.4 0.00 0.00 0.00 100
20260505064250 7 295 0.0 4.8 0.00 0.00 0.00 100
20260505062249 6 8 0.0 0.0 0.00 0.00 0.00 100
20260505060248 6 49 0.0 0.0 0.00 0.00 0.00 100
20260505054246 5 49 0.0 0.0 0.00 0.00 0.00 100
20260505052245 4 49 0.0 0.0 0.00 0.00 0.00 100
20260505050244 3 49 0.0 0.0 0.00 0.00 0.00 100
20260505040241 2 49 0.0 0.0 0.00 0.00 0.00 100
20260505034239 3 49 0.0 0.0 0.00 0.00 0.00 100
20260505032238 2 49 0.0 0.0 0.00 0.00 0.00 100
20260505030237 3 49 0.0 0.0 0.00 0.00 0.00 100
20260505024236 3 49 0.0 1.6 0.00 0.00 0.00 100
20260505022235 3 97 0.0 0.0 0.00 0.00 0.00 100
20260505020234 4 97 0.0 0.0 0.00 0.00 0.00 100
20260505014232 3 225 0.0 0.0 0.00 0.00 0.00 100
20260505012231 4 225 0.0 0.0 0.00 0.00 0.00 100
20260505010230 5 225 0.0 0.0 0.00 0.00 0.00 100
20260505004229 5 225 0.0 0.0 0.00 0.00 0.00 100
20260505002228 7 182 0.0 8.0 0.00 0.00 0.00 100
20260505000227 6 168 6.4 12.9 0.00 0.00 0.00 100
20260504234226 6 219 1.6 6.4 0.00 0.00 0.00 100
20260504230223 7 178 6.4 12.9 0.00 0.00 0.00 100
20260504224222 7 260 6.4 11.3 0.00 0.00 0.00 100
20260504222221 7 184 12.9 20.9 0.00 0.00 0.00 100
20260504220220 8 281 6.4 20.9 0.00 0.00 0.00 100
20260504214219 8 278 12.9 17.7 0.00 0.00 0.00 100
20260504212218 8 167 14.5 14.5 0.00 0.00 0.00 100
20260504210216 7 267 0.0 0.0 0.00 0.00 0.00 100
20260504204215 7 182 0.0 8.0 0.00 0.00 0.00 100
20260504202214 8 246 6.4 8.0 0.00 0.00 0.00 100
20260504200213 8 223 6.4 12.9 0.00 0.00 0.00 100
20260504194212 9 180 0.0 9.7 0.00 0.00 0.00 100
20260504192211 8 222 0.0 4.8 0.00 0.00 0.00 100
20260504190210 8 192 0.0 3.2 0.00 0.00 0.00 100
20260504184208 9 306 0.0 14.5 0.00 0.00 0.00 100
20260504182207 9 229 0.0 3.2 0.00 0.00 0.00 100
20260504180206 10 219 0.0 16.1 0.00 0.00 0.00 100